Regional Weather Roundup
Issued by NWS

Home | Current Version | Previous Version | Text Only | Print | Product List | Glossary Off
Versions: 1 2 3 4 5 6 7 8 9 10 11 12 13 14 15 16 17 18 19 20 21 22 23 24 25 26 27 28 29 30 31 32 33 34 35 36 37 38 39 40 41 42 43 44 45 46 47 48 49 50

000
ASUS43 KIND 231909
RWRIN

WEATHER ROUNDUP FOR INDIANA
NATIONAL WEATHER SERVICE INDIANAPOLIS IN
300 PM EDT SUN APR 23 2017

NOTE: "FAIR" INDICATES FEW OR NO CLOUDS BELOW 12,000 FEET WITH NO
SIGNIFICANT WEATHER AND/OR OBSTRUCTIONS TO VISIBILITY.

* - STATION DOES NOT REPORT WEATHER SUCH AS PRECIPITATION OR FOG.

+ - STATION NOT QUALITY CONTROLLED BY THE NATIONAL WEATHER SERVICE.
    USE DATA WITH CAUTION...ESPECIALLY DEWPOINT AND RELATIVE
    HUMIDITY OBSERVATIONS.

INZ001>003-010>013-019-020-232000-
NORTHWEST INDIANA

CITY           SKY/WX    TMP DP  RH WIND       PRES   REMARKS
GARY /AIRPORT/ SUNNY     64  21  19 NE5       30.10S
KNOX *+        SUNNY    N/A N/A N/A E8        30.06F
LA PORTE +     SUNNY     64  29  27 NW9       30.08F
MICHIGAN CITY+ SUNNY     63  32  31 NW6       30.09F
MONTICELLO +   SUNNY     67  28  22 E8G16     30.05F
RENSSELAER +   SUNNY     70  27  19 NE7G20    30.06F
VALPARAISO     SUNNY     68  27  21 NE9       30.08F

$$

LMZ046-743>745-232000-
SOUTHERN LAKE MICHIGAN

STATION/POSITION TIME  TEMP    WIND        PRES    WAVE
                       AIR SEA DIR/SP/G            HT
                 (UTC) (F)     (DEG/KT/KT) (MB)    (FT)
BURNS HARBOR     1840   54      50/  5/  5 1019.6F
MICHIGAN CITY    1840   49      20/  4/  5   N/A

$$

INZ004-005-014>016-021>024-232000-
NORTH CENTRAL INDIANA

CITY           SKY/WX    TMP DP  RH WIND       PRES   REMARKS
ELKHART        SUNNY     68  27  21 N7        30.06F
GOSHEN         SUNNY     67  33  28 E9        30.06F
LOGANSPORT +   SUNNY     66  32  28 NE6       30.06F
PERU/GRISSOM   SUNNY     66  33  29 NE9       30.04F
ROCHESTER +    SUNNY     70  27  19 NE9       30.06F
SOUTH BEND     SUNNY     66  33  29 NW7       30.07F
WARSAW +       SUNNY     64  32  29 NE8       30.06F

$$

INZ006>009-017-018-025>027-232000-
NORTHEAST INDIANA

CITY           SKY/WX    TMP DP  RH WIND       PRES   REMARKS
ANGOLA *+      SUNNY     66  57  72 CALM      30.06S
AUBURN +       SUNNY     64  30  27 CALM      30.07F
FORT WAYNE     MOSUNNY   67  34  29 E12       30.07F
HUNTINGTON +   SUNNY     65  31  28 E9        30.06F
KENDALLVILLE + SUNNY     67  36  32 N8        30.07S

$$

INZ028-029-035-036-043>045-051>053-232000-
WEST CENTRAL INDIANA

CITY           SKY/WX    TMP DP  RH WIND       PRES   REMARKS
CRAWFORDSVL +  SUNNY     65  34  31 NE13G22   30.03F
GREENCASTLE +  SUNNY     66  34  30 NE13G21   30.02S
LAFAYETTE      SUNNY     65  35  33 NE12G17   30.05F
TERRE HAUTE    SUNNY     69  31  24 NE13      30.01F

$$

INZ030>032-037>040-046>048-054>057-064-065-232000-
CENTRAL INDIANA

CITY           SKY/WX    TMP DP  RH WIND       PRES   REMARKS
CP ATTERBURY + MOSUNNY   66  34  30 NE10G21   30.00S
COLUMBUS       SUNNY     64  27  24 NE15G29   30.00F
FISHERS *+     SUNNY     68  43  40 NE10G16   30.02F
FRANKFORT +    SUNNY     69  32  25 E13G21    30.06F
GREENWOOD *+   MOSUNNY   68  32  26 NE13      30.01S
INDIANAPOLIS   MOSUNNY   68  35  29 NE12G23   30.00F
-EAGLE CREEK   SUNNY     67  34  29 NE10G22   30.01F
KOKOMO +       SUNNY     65  33  30 NE15G21   30.06F
MARION +       SUNNY     64  34  32 NE12G18   30.05F
MT COMFORT *+  SUNNY     64  34  32 NE14G21   30.02S
SHELBYVILLE    CLOUDY    71  30  21 E18G24    30.00F
ZIONSVILLE +   SUNNY     65  32  29 NE17      30.04S

$$

INZ033-034-041-042-049-050-058-059-232000-
EAST CENTRAL INDIANA

CITY           SKY/WX    TMP DP  RH WIND       PRES   REMARKS
MUNCIE         SUNNY     69  31  24 NE13      30.03F
RICHMOND +     PTSUNNY   64  32  29 NE13G23   30.01S

$$

INZ060-061-067>069-081>083-085>088-232000-
SOUTHWEST INDIANA

CITY           SKY/WX    TMP DP  RH WIND       PRES   REMARKS
EVANSVILLE     SUNNY     69  38  32 NE18G29   29.94F
HUNTINGBURG *+ SUNNY     66  41  40 NE12G26   29.93F
WASHINGTON +   SUNNY     69  28  22 CALM      29.96F

$$

INZ062-063-066-070>080-084-089>092-232000-
SOUTH CENTRAL AND SOUTHEAST INDIANA

CITY           SKY/WX    TMP DP  RH WIND       PRES   REMARKS
BEDFORD +      CLOUDY   N/A N/A N/A NE9G23    29.97S
BLOOMINGTON    SUNNY     69  33  26 NE10G20   29.99F
MADISON *+     CLOUDY    61  32  33 NE10G16   29.98F
NORTH VERNON + CLOUDY    64  34  32 NE14      29.98F
SEYMOUR +      CLOUDY    66  37  34 NE16      29.98F

$$





USA.gov is the U.S. government's official web portal to all federal, state and local government web resources and services.